COSMOS 2251 DEB, 40239

Orbit data source: Space-Track

COSMOS 2251 DEB, 40239 is space debris in LEO originally from a launch on Wed, 16 Jun 1993 UTC launched from the Plesetsk Missile And Space Complex (PKMTR). The debris from Iridium 33, an American commercial communications satellite, has been tracked extensively since its accidental collision with the defunct Russian satellite Cosmos 2251 in 2009. This event, occurring at high speed in low Earth orbit (LEO), generated thousands of pieces of space debris, significantly increasing the risk of further collisions. The Iridium 33 debris cloud has impacted space traffic management and orbital debris mitigation strategies, making it a subject of ongoing study in space situational awareness.

Loading next visibility...
Identifier
40239, 1993-036BVU
Orbit
LEO
Country
Flag of CISCIS
Related business
Manufacturer
Unknown
Mission
Spacecraft
Bus & Motor
Unknown
Mass
Unknown
Launch date (UTC)
1993-06-16 (33 years ago)
Launch vehicle
Unknown
Launch site
Plesetsk Missile And Space Complex (PKMTR)
Object type
Payload
Rocket body
Debris
Shape & HBR
Unknown shape, 0.1 m
Radar Cross Section
Small (<0.1 m²)

Expand to show TLE details & history
Last TLE update: 1 day ago

TLE from 1 day ago
0 COSMOS 2251 DEB
1 40239U 93036BVU 26252.98707269  .00000835  00000-0  16142-3 0  9997
2 40239  74.0282 115.9398 0085144 160.2234 267.9449 14.62793324635768
Epoch: 2026-09-09T23:41Z
TLE epoch observation values (Epoch: 2026-09-09T23:41:23.080Z)
Latitude
62.50759°
Longitude
164.72587°
Altitude
697.209 km
Speed
7.512 km/s
True Right ascension
09h 56m 24s
True Declination
62° 21' 55"
Sunlit
Object was in daylight at epoch
Visualization orbit readout
Latitude
Unknown
Longitude
Unknown
Altitude
Unknown
Speed
Unknown
Apparent Right ascension
Unknown
Apparent Declination
Unknown
Sunlit
N/A
Visualization observer readout
Local Sidereal Time
02:23:16
Azimuth
Unknown
Elevation
Unknown
Doppler factor
Unknown
Orbital elements
Apogee altitude
741.875 km
Perigee altitude
621.653 km
Semi-major axis
7,059.901 km
Eccentricity
0.00851
Inclination
74.0282°
RAAN
115.9398°
Arg. of periapsis
160.2234°
True anomaly
266.97027°
Mean anomaly
267.9449°
Eccentric anomaly
267.45754°
Mean motion
3.65886 °/min
Orbital period
98.39 mins
BSTAR
0.00016142

Documentation

Showing up to 5 results
|